NOZ445 ENGM-ENBR

Flight info

Callsign NOZ445
Flight time 0h 37m
Altitude 26000
Route ATLAP DCT AGEKU DCT PESUR
Aircraft B738/M-SDE2E3FGHIRWXY/LB1

Departure

Time 2026-04-30 13:00
Airport Oslo-Gardermoen International Airport (ENGM)

Arrival

Time 2026-04-30 13:38
Airport Bergen Airport, Flesland (ENBR)
Time Latitude Longitude Altitude Speed Heading
2026-04-30 12:29 60.19669 11.09976 681 ft 0 kts 107°
2026-04-30 12:49 60.19674 11.09945 681 ft 2 kts 107°
2026-04-30 12:50 60.19679 11.09914 678 ft 2 kts 107°
2026-04-30 12:50 60.19684 11.09882 676 ft 2 kts 107°
2026-04-30 12:50 60.19685 11.09874 676 ft 0 kts 107°
2026-04-30 12:53 60.19686 11.09880 677 ft 2 kts 81°
2026-04-30 12:53 60.19696 11.09877 677 ft 3 kts 330°
2026-04-30 12:54 60.19739 11.09817 680 ft 9 kts 345°
2026-04-30 12:54 60.19787 11.09817 678 ft 12 kts 12°
2026-04-30 12:54 60.19887 11.09870 681 ft 16 kts 15°
2026-04-30 12:54 60.19970 11.09896 681 ft 11 kts 340°
2026-04-30 12:55 60.20006 11.09770 682 ft 11 kts 287°
2026-04-30 12:55 60.20028 11.09619 680 ft 13 kts 286°
2026-04-30 12:55 60.20059 11.09400 679 ft 19 kts 286°
2026-04-30 12:55 60.20098 11.09127 678 ft 20 kts 286°
2026-04-30 12:56 60.20134 11.08925 678 ft 12 kts 314°
2026-04-30 12:56 60.20212 11.08922 678 ft 12 kts 13°
2026-04-30 12:56 60.20308 11.08979 692 ft 17 kts 18°
2026-04-30 12:56 60.20445 11.09058 677 ft 24 kts 16°
2026-04-30 12:57 60.20622 11.09162 678 ft 29 kts 15°
2026-04-30 12:57 60.20816 11.09274 680 ft 28 kts 16°
2026-04-30 12:57 60.20996 11.09379 682 ft 26 kts 16°
2026-04-30 12:57 60.21168 11.09478 678 ft 25 kts 16°
2026-04-30 12:58 60.21326 11.09569 681 ft 23 kts 16°
2026-04-30 12:58 60.21473 11.09643 683 ft 18 kts 359°
2026-04-30 12:58 60.21553 11.09469 681 ft 18 kts 287°
2026-04-30 12:58 60.21582 11.09246 681 ft 15 kts 279°
2026-04-30 12:59 60.21538 11.09129 682 ft 10 kts 197°
2026-04-30 12:59 60.21467 11.09088 682 ft 12 kts 196°
2026-04-30 12:59 60.21298 11.08990 681 ft 55 kts 196°
2026-04-30 12:59 60.20701 11.08645 676 ft 121 kts 196°
2026-04-30 13:00 60.19737 11.08101 857 ft 159 kts 195°
2026-04-30 13:00 60.18675 11.07460 1628 ft 158 kts 197°
2026-04-30 13:00 60.17611 11.06794 2355 ft 164 kts 201°
2026-04-30 13:00 60.16578 11.05516 2628 ft 194 kts 228°
2026-04-30 13:01 60.15815 11.03096 2909 ft 218 kts 245°
2026-04-30 13:01 60.15212 11.00162 3232 ft 240 kts 246°
2026-04-30 13:01 60.14510 10.96939 3639 ft 256 kts 246°
2026-04-30 13:01 60.13999 10.93511 4505 ft 256 kts 265°
2026-04-30 13:02 60.13968 10.89938 5365 ft 256 kts 272°
2026-04-30 13:02 60.14006 10.86384 6128 ft 258 kts 273°
2026-04-30 13:02 60.14051 10.82746 6818 ft 261 kts 274°
2026-04-30 13:02 60.14093 10.79139 7584 ft 262 kts 274°
2026-04-30 13:03 60.14133 10.75437 8313 ft 266 kts 273°
2026-04-30 13:03 60.14170 10.71693 9029 ft 270 kts 273°
2026-04-30 13:03 60.14205 10.67932 9782 ft 272 kts 272°
2026-04-30 13:03 60.14237 10.64101 10523 ft 275 kts 272°
2026-04-30 13:04 60.14269 10.60171 10782 ft 296 kts 272°
2026-04-30 13:04 60.14302 10.55863 10950 ft 318 kts 272°
2026-04-30 13:04 60.14334 10.51319 11216 ft 334 kts 272°
2026-04-30 13:04 60.14365 10.46577 11753 ft 341 kts 272°
2026-04-30 13:05 60.14393 10.41788 12436 ft 344 kts 272°
2026-04-30 13:05 60.14419 10.37007 13117 ft 348 kts 271°
2026-04-30 13:05 60.14444 10.32166 13783 ft 352 kts 271°
2026-04-30 13:06 60.14491 10.22214 15116 ft 359 kts 271°
2026-04-30 13:06 60.14512 10.17221 15817 ft 361 kts 271°
2026-04-30 13:06 60.14531 10.12125 16484 ft 364 kts 271°
2026-04-30 13:06 60.14548 10.07068 17163 ft 367 kts 271°
2026-04-30 13:07 60.14564 10.01911 17821 ft 370 kts 271°
2026-04-30 13:07 60.14578 9.96715 18523 ft 372 kts 271°
2026-04-30 13:07 60.14592 9.91504 19111 ft 375 kts 271°
2026-04-30 13:07 60.14602 9.86306 19652 ft 378 kts 271°
2026-04-30 13:08 60.14610 9.81016 20225 ft 380 kts 271°
2026-04-30 13:08 60.14719 9.75678 20786 ft 383 kts 275°
2026-04-30 13:08 60.14926 9.70338 21340 ft 385 kts 276°
2026-04-30 13:08 60.15164 9.65025 21886 ft 388 kts 276°
2026-04-30 13:09 60.15410 9.59597 22454 ft 390 kts 276°
2026-04-30 13:09 60.15649 9.54166 23138 ft 388 kts 276°
2026-04-30 13:09 60.15874 9.48869 23905 ft 384 kts 276°
2026-04-30 13:09 60.16094 9.43498 24543 ft 381 kts 276°
2026-04-30 13:10 60.16304 9.38247 25101 ft 380 kts 276°
2026-04-30 13:10 60.16513 9.32926 25689 ft 379 kts 275°
2026-04-30 13:10 60.16713 9.27716 26256 ft 378 kts 275°
2026-04-30 13:10 60.16914 9.22423 26317 ft 379 kts 275°
2026-04-30 13:11 60.17112 9.17142 26341 ft 377 kts 275°
2026-04-30 13:11 60.17306 9.11934 26347 ft 377 kts 275°
2026-04-30 13:11 60.17499 9.06678 26367 ft 376 kts 275°
2026-04-30 13:11 60.17690 9.01421 26373 ft 376 kts 275°
2026-04-30 13:12 60.17877 8.96226 26365 ft 376 kts 275°
2026-04-30 13:12 60.18064 8.90977 26367 ft 375 kts 275°
2026-04-30 13:12 60.18247 8.85789 26367 ft 376 kts 275°
2026-04-30 13:13 60.18611 8.75284 26403 ft 377 kts 275°
2026-04-30 13:13 60.18790 8.70016 26405 ft 377 kts 275°
2026-04-30 13:13 60.19140 8.59552 26406 ft 377 kts 274°
2026-04-30 13:14 60.19314 8.54257 26432 ft 378 kts 274°
2026-04-30 13:14 60.19486 8.48975 26434 ft 377 kts 274°
2026-04-30 13:14 60.19821 8.38484 26435 ft 377 kts 274°
2026-04-30 13:15 60.19986 8.33219 26435 ft 376 kts 274°
2026-04-30 13:15 60.20302 8.22921 26099 ft 363 kts 274°
2026-04-30 13:15 60.20455 8.17848 25721 ft 361 kts 274°
2026-04-30 13:16 60.20606 8.12832 25367 ft 357 kts 274°
2026-04-30 13:16 60.20752 8.07914 24997 ft 355 kts 274°
2026-04-30 13:16 60.20897 8.02972 24637 ft 352 kts 274°
2026-04-30 13:17 60.21176 7.93305 24162 ft 340 kts 273°
2026-04-30 13:17 60.21310 7.88573 23903 ft 336 kts 273°
2026-04-30 13:17 60.21566 7.79342 23267 ft 328 kts 272°
2026-04-30 13:18 60.21691 7.74770 22898 ft 326 kts 272°
2026-04-30 13:18 60.21931 7.65768 22183 ft 321 kts 272°
2026-04-30 13:18 60.22048 7.61288 21829 ft 319 kts 272°
2026-04-30 13:19 60.22164 7.56823 21479 ft 317 kts 272°
2026-04-30 13:19 60.22275 7.52442 21133 ft 315 kts 272°
2026-04-30 13:19 60.22387 7.48038 20780 ft 313 kts 272°
2026-04-30 13:19 60.22494 7.43704 20440 ft 312 kts 272°
2026-04-30 13:20 60.22602 7.39296 19850 ft 318 kts 271°
2026-04-30 13:20 60.22709 7.34857 19347 ft 322 kts 271°
2026-04-30 13:20 60.22817 7.30339 18957 ft 322 kts 270°
2026-04-30 13:20 60.22924 7.25810 18581 ft 320 kts 270°
2026-04-30 13:21 60.23026 7.21406 18183 ft 318 kts 270°
2026-04-30 13:21 60.23128 7.16959 17805 ft 317 kts 270°
2026-04-30 13:21 60.23227 7.12540 17440 ft 314 kts 270°
2026-04-30 13:22 60.23421 7.03812 16749 ft 310 kts 270°
2026-04-30 13:22 60.23512 6.99540 16407 ft 308 kts 270°
2026-04-30 13:22 60.23691 6.90988 15713 ft 304 kts 270°
2026-04-30 13:23 60.23779 6.86726 15381 ft 303 kts 270°
2026-04-30 13:23 60.23948 6.78342 14713 ft 299 kts 270°
2026-04-30 13:24 60.24111 6.70014 14033 ft 297 kts 269°
2026-04-30 13:24 60.24271 6.61738 13339 ft 295 kts 269°
2026-04-30 13:25 60.25171 6.53706 12645 ft 298 kts 287°
2026-04-30 13:25 60.26715 6.45916 11971 ft 298 kts 288°
2026-04-30 13:26 60.28982 6.34347 10995 ft 296 kts 288°
2026-04-30 13:26 60.30467 6.26649 10348 ft 294 kts 288°
2026-04-30 13:27 60.31895 6.19197 10082 ft 276 kts 287°
2026-04-30 13:28 60.33899 6.08662 9414 ft 264 kts 287°
2026-04-30 13:28 60.35197 6.01795 8867 ft 260 kts 287°
2026-04-30 13:28 60.35839 5.98388 8617 ft 257 kts 287°
2026-04-30 13:29 60.37106 5.91648 8111 ft 256 kts 287°
2026-04-30 13:29 60.38367 5.84912 7564 ft 255 kts 287°
2026-04-30 13:30 60.40242 5.74886 6773 ft 255 kts 287°
2026-04-30 13:31 60.41487 5.68180 6171 ft 255 kts 287°
2026-04-30 13:31 60.42046 5.57684 5384 ft 246 kts 268°
2026-04-30 13:32 60.42083 5.51190 5157 ft 212 kts 268°
2026-04-30 13:32 60.42127 5.45576 4598 ft 197 kts 268°
2026-04-30 13:33 60.41753 5.40275 4279 ft 180 kts 258°
2026-04-30 13:33 60.41349 5.35418 3912 ft 174 kts 257°
2026-04-30 13:34 60.41151 5.33024 3688 ft 173 kts 257°
2026-04-30 13:34 60.40471 5.25135 2130 ft 189 kts 252°
2026-04-30 13:35 60.39963 5.22914 2055 ft 160 kts 232°
2026-04-30 13:35 60.38358 5.20222 1804 ft 155 kts 204°
2026-04-30 13:36 60.36237 5.19587 1422 ft 153 kts 176°
2026-04-30 13:36 60.35189 5.19850 1256 ft 149 kts 172°
2026-04-30 13:36 60.33119 5.20535 825 ft 154 kts 171°
2026-04-30 13:37 60.32054 5.20896 583 ft 151 kts 170°
2026-04-30 13:37 60.30073 5.21562 169 ft 136 kts 171°
2026-04-30 13:38 60.28846 5.21981 163 ft 49 kts 171°
2026-04-30 13:38 60.28680 5.22062 160 ft 16 kts 134°
2026-04-30 13:38 60.28677 5.22259 164 ft 0 kts 80°
2026-04-30 13:40 60.28678 5.22273 164 ft 5 kts 80°
2026-04-30 13:40 60.28690 5.22399 168 ft 11 kts 73°
2026-04-30 13:40 60.28741 5.22492 173 ft 10 kts 30°
2026-04-30 13:41 60.28797 5.22568 174 ft 10 kts 35°
2026-04-30 13:41 60.28831 5.22615 174 ft 0 kts 34°